Location: El Álamo
(40.2307°N, 3.9945°W)
Time: 04:06:08
(UTC+00:00)

Cosmos 2369 - Pass Details

Date: 19 May 2025
Orbit: 840 x 852 km, 71.0° (Epoch: 23 June)

Event Time Altitude Azimuth Distance (km) Brightness Sun altitude
Rises 23:16:01 0° 332° (NNW) 3,407 8.0 -28.4°
Reaches altitude 10° 23:18:30 10° 329° (NNW) 2,467 7.0 -28.5°
Enters shadow 23:23:39 56° 269° (W) 993 4.0 -28.7°
